Weather History for Preston, MN

Change the Weather History Date:

Tuesday, September 11, 2012

  Actual Average (KRST) Record (KRST)
Temperature  
Mean Temperature 73 °F 63 °F  
Max Temperature 88 °F 73 °F 94 °F (1931)
Min Temperature 58 °F 53 °F 24 °F (1917)
Degree Days  
Heating Degree Days 0 4  
Month to date heating degree days 33  
Since 1 July heating degree days 71  
Cooling Degree Days 8 2  
Month to date cooling degree days 30  
Year to date cooling degree days 555  
Growing Degree Days 23 (Base 50)    
Moisture  
Dew Point 48 °F    
Average Humidity 46    
Maximum Humidity 72    
Minimum Humidity 20    
Precipitation  
Precipitation 0.00 in 0.12 in 1.47 in (1942)
Month to date precipitation 1.34  
Year to date precipitation 25.53  
Snow  
Snow 0.00 in 0.00 in 0.00 in (2012)
Month to date snowfall 0.0  
Since 1 July snowfall 0.0  
Snow Depth -    
Sea Level Pressure  
Sea Level Pressure 29.93 in    
Wind  
Wind Speed 15 mph (SSW)    
Max Wind Speed 26 mph    
Max Gust Speed 37 mph    
Visibility 10 miles    
Events      
T = Trace of Precipitation, MM = Missing Value Source: NWS Daily Summary

Daily Weather History Graph

Daily Weather History Graph

Search for Another Location

Airport:

Trip Planner

Search our weather history database for the weather conditions in past years. The results will help you decide how hot, cold, wet, or windy it might be!

Date:

Astronomy

Sep. 11, 2012 Rise Set
Actual Time 6:44 AM CDT 7:25 PM CDT
Civil Twilight 6:15 AM CDT 7:54 PM CDT
Nautical Twilight 5:40 AM CDT 8:28 PM CDT
Astronomical Twilight 5:05 AM CDT 9:04 PM CDT
Moon 1:54 AM CDT (9/11) 4:42 PM CDT (9/11)
Length of Visible Light 13h 39m
Length of Day
12h 41m
Waning Crescent, 21% of the Moon is Illuminated
Sep 11
Waning Crescent
Sep 15
New
Sep 22
First Quarter
Sep 29
Full
Oct 8
Last Quarter

Hourly Weather History & Observations

Time (CDT) Temp. Dew Point Humidity Pressure Visibility Wind Dir Wind Speed Gust Speed Precip Events Conditions
12:14 AM 62.4 °F 47.8 °F 59% 29.98 in 10.0 mi South 11.5 mph 19.6 mph N/A   Clear
12:33 AM 61.9 °F 48.2 °F 61% 29.98 in 10.0 mi South 10.4 mph 16.1 mph N/A   Clear
12:54 AM 61.7 °F 48.2 °F 61% 29.98 in 10.0 mi South 12.7 mph - N/A   Clear
1:13 AM 61.5 °F 48.2 °F 62% 29.97 in 10.0 mi South 11.5 mph 21.9 mph N/A   Clear
1:33 AM 60.8 °F 48.4 °F 64% 29.97 in 10.0 mi South 12.7 mph 19.6 mph N/A   Clear
1:54 AM 60.1 °F 48.6 °F 66% 29.96 in 10.0 mi South 10.4 mph 16.1 mph N/A   Clear
2:13 AM 59.9 °F 48.6 °F 66% 29.96 in 10.0 mi South 10.4 mph - N/A   Clear
2:33 AM 59.9 °F 48.7 °F 67% 29.96 in 10.0 mi South 11.5 mph - N/A   Clear
2:53 AM 60.1 °F 48.7 °F 66% 29.95 in 10.0 mi South 12.7 mph - N/A   Clear
3:14 AM 60.3 °F 48.7 °F 66% 29.95 in 10.0 mi South 11.5 mph 18.4 mph N/A   Clear
3:33 AM 60.3 °F 48.7 °F 66% 29.95 in 10.0 mi South 12.7 mph 18.4 mph N/A   Clear
3:53 AM 60.1 °F 48.7 °F 66% 29.95 in 10.0 mi SSW 15.0 mph 18.4 mph N/A   Clear
4:14 AM 59.9 °F 48.7 °F 67% 29.95 in 10.0 mi SSW 13.8 mph 18.4 mph N/A   Clear
4:34 AM 59.9 °F 48.7 °F 67% 29.95 in 10.0 mi SSW 16.1 mph 20.7 mph N/A   Clear
4:53 AM 59.4 °F 48.9 °F 68% 29.95 in 10.0 mi SSW 13.8 mph 19.6 mph N/A   Clear
5:14 AM 59.0 °F 48.9 °F 69% 29.95 in 10.0 mi South 12.7 mph 18.4 mph N/A   Clear
5:33 AM 59.0 °F 48.9 °F 69% 29.95 in 10.0 mi South 13.8 mph - N/A   Clear
5:53 AM 58.5 °F 48.9 °F 71% 29.95 in 10.0 mi SSW 11.5 mph 20.7 mph N/A   Clear
6:14 AM 58.3 °F 49.1 °F 71% 29.95 in 10.0 mi SSW 13.8 mph - N/A   Clear
6:34 AM 58.1 °F 49.1 °F 72% 29.95 in 10.0 mi SSW 13.8 mph 20.7 mph N/A   Clear
6:53 AM 58.1 °F 48.9 °F 71% 29.95 in 10.0 mi SSW 16.1 mph 20.7 mph N/A   Clear
7:14 AM 58.5 °F 49.1 °F 71% 29.95 in 10.0 mi SSW 15.0 mph 23.0 mph N/A   Clear
7:33 AM 59.2 °F 49.1 °F 69% 29.95 in 10.0 mi SSW 16.1 mph 21.9 mph N/A   Clear
7:53 AM 60.4 °F 49.3 °F 67% 29.94 in 10.0 mi SSW 16.1 mph 25.3 mph N/A   Clear
8:14 AM 61.7 °F 49.5 °F 64% 29.94 in 10.0 mi South 18.4 mph 25.3 mph N/A   Clear
8:33 AM 63.0 °F 49.6 °F 62% 29.94 in 10.0 mi SSW 17.3 mph 24.2 mph N/A   Clear
8:53 AM 64.4 °F 50.0 °F 59% 29.94 in 10.0 mi SSW 19.6 mph 25.3 mph N/A   Clear
9:14 AM 66.2 °F 50.0 °F 56% 29.95 in 10.0 mi SSW 16.1 mph 24.2 mph N/A   Clear
9:33 AM 68.0 °F 50.0 °F 52% 29.94 in 10.0 mi South 23.0 mph 29.9 mph N/A   Clear
9:53 AM 69.3 °F 49.8 °F 50% 29.94 in 10.0 mi SSW 20.7 mph 27.6 mph N/A   Clear
10:13 AM 71.1 °F 49.6 °F 47% 29.95 in 10.0 mi SSW 19.6 mph 27.6 mph N/A   Clear
10:34 AM 72.7 °F 50.2 °F 45% 29.95 in 7.0 mi South 15.0 mph 20.7 mph N/A   Clear
10:53 AM 75.0 °F 49.5 °F 40% 29.95 in 10.0 mi SSW 15.0 mph 27.6 mph N/A   Clear
11:13 AM 77.0 °F 48.2 °F 36% 29.95 in 10.0 mi SSW 19.6 mph 25.3 mph N/A   Clear
11:34 AM 77.9 °F 47.7 °F 34% 29.94 in 10.0 mi SSW 18.4 mph 24.2 mph N/A   Clear
11:53 AM 79.5 °F 48.2 °F 33% 29.94 in 10.0 mi SSW 16.1 mph 26.5 mph N/A   Clear
12:13 PM 80.6 °F 47.1 °F 31% 29.94 in 10.0 mi SSW 17.3 mph 28.8 mph N/A   Clear
12:34 PM 82.2 °F 48.4 °F 31% 29.93 in 10.0 mi South 18.4 mph 24.2 mph N/A   Clear
12:53 PM 83.1 °F 48.0 °F 29% 29.93 in 10.0 mi South 18.4 mph 26.5 mph N/A   Clear
1:13 PM 84.2 °F 47.1 °F 27% 29.92 in 10.0 mi South 20.7 mph 26.5 mph N/A   Clear
1:34 PM 84.9 °F 47.1 °F 27% 29.91 in 10.0 mi SSW 20.7 mph 27.6 mph N/A   Clear
1:53 PM 85.8 °F 46.9 °F 26% 29.90 in 10.0 mi SSW 19.6 mph 27.6 mph N/A   Clear
2:13 PM 86.9 °F 45.3 °F 23% 29.89 in 10.0 mi South 23.0 mph 32.2 mph N/A   Clear
2:34 PM 87.8 °F 45.0 °F 22% 29.89 in 10.0 mi SSW 23.0 mph 29.9 mph N/A   Clear
2:53 PM 87.8 °F 44.1 °F 22% 29.89 in 10.0 mi SSW 26.5 mph 32.2 mph N/A   Clear
3:14 PM 88.2 °F 43.3 °F 21% 29.88 in 10.0 mi SSW 24.2 mph 33.4 mph N/A   Clear
3:33 PM 87.8 °F 43.0 °F 21% 29.88 in 10.0 mi SSW 17.3 mph 33.4 mph N/A   Clear
3:53 PM 87.1 °F 43.5 °F 22% 29.88 in 10.0 mi South 20.7 mph 36.8 mph N/A   Clear
4:14 PM 87.6 °F 43.0 °F 21% 29.87 in 10.0 mi SSW 21.9 mph 33.4 mph N/A   Clear
4:33 PM 86.2 °F 43.2 °F 22% 29.87 in 10.0 mi SSW 21.9 mph 29.9 mph N/A   Clear
4:54 PM 86.0 °F 43.2 °F 22% 29.87 in 10.0 mi SSW 17.3 mph 28.8 mph N/A   Clear
5:13 PM 86.7 °F 42.8 °F 21% 29.87 in 10.0 mi SSW 20.7 mph 32.2 mph N/A   Clear
5:34 PM 86.0 °F 43.5 °F 23% 29.87 in 10.0 mi South 24.2 mph 34.5 mph N/A   Clear
5:54 PM 86.0 °F 40.8 °F 20% 29.87 in 10.0 mi SSW 23.0 mph 33.4 mph N/A   Clear
6:13 PM 84.7 °F 42.3 °F 22% 29.87 in 10.0 mi South 23.0 mph 29.9 mph N/A   Clear
6:34 PM 84.2 °F 45.5 °F 26% 29.87 in 10.0 mi South 18.4 mph 25.3 mph N/A   Clear
6:53 PM 82.4 °F 46.4 °F 28% 29.87 in 10.0 mi South 15.0 mph 24.2 mph N/A   Clear
7:14 PM 80.6 °F 46.4 °F 30% 29.87 in 10.0 mi South 16.1 mph 23.0 mph N/A   Clear
7:33 PM 79.7 °F 45.5 °F 30% 29.88 in 10.0 mi South 16.1 mph 20.7 mph N/A   Clear
7:53 PM 78.6 °F 45.1 °F 31% 29.89 in 10.0 mi South 15.0 mph 23.0 mph N/A   Clear
8:14 PM 77.5 °F 45.3 °F 32% 29.90 in 10.0 mi South 11.5 mph - N/A   Clear
8:33 PM 76.5 °F 45.1 °F 33% 29.91 in 10.0 mi South 10.4 mph 16.1 mph N/A   Clear
8:53 PM 75.7 °F 45.0 °F 33% 29.91 in 10.0 mi South 12.7 mph - N/A   Clear
9:13 PM 74.7 °F 45.7 °F 36% 29.92 in 10.0 mi South 10.4 mph 16.1 mph N/A   Clear
9:33 PM 73.0 °F 47.8 °F 41% 29.92 in 10.0 mi South 11.5 mph 16.1 mph N/A   Clear
9:54 PM 72.3 °F 50.9 °F 47% 29.93 in 10.0 mi South 10.4 mph - N/A   Clear
10:13 PM 72.5 °F 51.1 °F 47% 29.93 in 10.0 mi South 11.5 mph 16.1 mph N/A   Clear
10:34 PM 72.5 °F 50.9 °F 47% 29.93 in 10.0 mi SSW 13.8 mph 19.6 mph N/A   Clear
10:53 PM 72.0 °F 51.1 °F 48% 29.94 in 10.0 mi SSW 11.5 mph - N/A   Clear
11:33 PM 70.7 °F 51.3 °F 50% 29.95 in 10.0 mi South 12.7 mph - N/A   Clear
11:53 PM 70.2 °F 51.4 °F 51% 29.95 in 10.0 mi SSW 10.4 mph - N/A   Clear